Location: Mapua
(41.2500°S, 173.1000°E)
Time: 03:58:52
(UTC+12:00)

Hubble Space Telescope - Visible Passes

Search period start: 23 May 2018 00:00
Search period end: 02 June 2018 00:00
Orbit: 537 x 541 km, 28.5° (Epoch: 21 May)

Date Brightness Start Highest point End Pass type
(mag) Time Alt. Az. Time Alt. Az. Time Alt. Az.
25 May 3.4 18:19:08 10° N 18:19:34 10° NNE 18:20:00 10° NNE visible
25 May 3.7 19:57:46 10° NNW 19:57:58 11° NNW 19:57:58 11° NNW visible
26 May 3.3 18:07:44 10° N 18:09:05 11° N 18:10:28 10° NNE visible
26 May 3.5 19:47:20 10° NW 19:48:15 12° NNW 19:48:15 12° NNW visible
27 May 3.3 17:56:51 10° NNW 17:58:37 12° N 18:00:23 10° NNE visible
27 May 3.3 19:36:59 10° NW 19:38:32 13° NNW 19:38:32 13° NNW visible
28 May 3.3 17:46:09 10° NNW 17:48:08 13° N 17:50:10 10° NE visible
28 May 3.3 19:26:44 10° NW 19:28:34 13° N 19:28:52 13° N visible
29 May 3.3 17:35:33 10° NNW 17:37:41 14° N 17:39:50 10° NE visible
29 May 3.4 19:16:35 10° NNW 19:18:06 12° N 19:19:16 11° N visible
30 May 3.5 19:06:46 10° NNW 19:07:38 11° NNW 19:08:30 10° N visible
